Find Starlink 3230

NORAD ID: 50845 Int'l Des: 2022-001 Owner: SPXS Country: US Constellation: starlink operational
LEOCIRCULAR

Live Position

Loading 3D Globe...

About Starlink 3230

Description loading...

Upcoming Passes

Passes for default location (London). Set your location on the main map for personalized predictions.

Altitude History

Loading altitude history...

Two-Line Element Set

1 50845U 22001AU 26112.03018287 .00000357 00000-0 40546-4 0 9996
2 50845 53.2183 344.5579 0001502 88.4267 271.6897 15.08832165236815
Epoch: Apr 22, 2026 • Age: 17 hours

Current Status

Altitude 543.2 km
Velocity 7.59 km/s
Sub-Earth Point -11.98°S, 57.48°E
Launch Date Jan 6, 2022
Age 4.2 years
Type internet

Technical Details

Classification Payload
Mass 297.00 kg
Dry Mass 275.00 kg
Total Mass 297.00 kg
Length 0.20 m
Diameter 2.80 m
Span 9.00 m
Shape Box + pan
Manufacturer SPXS
Bus Type Starlink
Phase Status In Orbit
Owner/State SPXS/US

Most Searched